Location: *
(46.4833°N, 7.6667°E)
Time: 15:20:43
(UTC+00:00)

STARLINK-1042 - Pass Details

Date: 27 February 2020
Orbit: 548 x 551 km, 53.0° (Epoch: 28 March)

Event Time Altitude Azimuth Distance (km) Brightness Sun altitude
Rises 18:58:05 0° 250° (WSW) 2,709 8.2 -19.1°
Reaches altitude 10° 19:00:20 10° 253° (WSW) 1,818 7.2 -19.5°
Maximum altitude 19:04:26 62° 335° (NNW) 619 3.9 -20.2°
Enters shadow 19:05:43 40° 38° (NE) 819 4.2 -20.4°
